Regional Weather Roundup
Issued by NWS New Orleans/Baton Rouge, LA

Home | Current Version | Previous Version | Text Only | Print | Product List | Glossary On
Versions: 1 2 3 4 5 6 7 8 9 10 11 12 13 14 15 16 17 18 19 20 21 22 23 24 25 26 27
000
ASUS44 KLIX 201813
RWRLIX
NEW ORLEANS REGIONAL WEATHER ROUNDUP
NATIONAL WEATHER SERVICE NEW ORLEANS LA
100 PM CDT WED SEP 20 2017

NOTE: "FAIR" INDICATES FEW OR NO CLOUDS BELOW 12,000 FEET WITH NO
      SIGNIFICANT WEATHER AND/OR OBSTRUCTIONS TO VISIBILITY.
      SKY/WX - SKY CONDITION AND SIGNIFICANT WEATHER.
      TMP - AIR TEMPERATURE.     DP    - DEWPOINT TEMPERATURE.
      RH  - RELATIVE HUMIDITY.   PRES  - PRESSURE.
      HI  - HEAT INDEX.          WCI   - WIND CHILL INDEX.

*  THESE STATIONS ARE NOT NWS OR FAA STATIONS AND ARE NOT UNDER
   NWS QUALITY CONTROL.

LAZ038-040-048-061>063-065>067-069-201900-
SOUTHEAST LOUISIANA

CITY           SKY/WX    TMP DP  RH WIND       PRES   REMARKS
N.O. INTL ARPT CLOUDY    89  73  59 CALM      30.01F HX  97
6HR MIN TEMP:  76; 6HR MAX TEMP:  90;

N.O. LAKEFRONT CLOUDY    87  78  74 N8        30.02F HX 100
6HR MIN TEMP:  77; 6HR MAX TEMP:  88;

N.O. DOWNTOWN*   N/A     90  72  55 S5        30.02F HX  97
6HR MIN TEMP:  81; 6HR MAX TEMP:  91;

RESERVE*       CLOUDY    90  72  54 CALM      30.01F HX  96
6HR MIN TEMP:  78; 6HR MAX TEMP:  91;

SLIDELL        PTSUNNY   88  69  53 CALM      30.01F
6HR MIN TEMP:  73; 6HR MAX TEMP:  90;

BATON ROUGE    PTSUNNY   87  72  60 VRB3      30.01F
6HR MIN TEMP:  74; 6HR MAX TEMP:  88;

BOOTHVILLE     SUNNY     87  74  64 VRB6      30.02F HX  95
6HR MIN TEMP:  80; 6HR MAX TEMP:  88;

BELLE CHASSE   PTSUNNY   89  75  63 S8        30.01F HX  99
6HR MIN TEMP:  73; 6HR MAX TEMP:  90;

BOGALUSA*        N/A     87  71  58 CALM      30.04F
6HR MIN TEMP:  73; 6HR MAX TEMP:  88;

GALLIANO*      MOCLDY    89  72  56 S7        30.02F HX  95
6HR MIN TEMP:  75; 6HR MAX TEMP:  90;

NEW ROADS*       N/A     87  74  64 SW3       30.02S HX  95
6HR MIN TEMP:  72; 6HR MAX TEMP:  87;

GONZALES*      MOCLDY    87  73  63 CALM      30.00F HX  95
6HR MIN TEMP:  73; 6HR MAX TEMP:  88;

HAMMOND*       PTSUNNY   90  68  48 S6        30.02S
HOUMA*         PTSUNNY   88  73  62 S8        30.01F HX  96
PORT FOURCHON* CLOUDY    86  73  66 SW8       30.03F

$$

MSZ070-080>082-201900-
SOUTHERN MISSISSIPPI

CITY           SKY/WX    TMP DP  RH WIND       PRES   REMARKS
MCCOMB         CLOUDY    85  71  63 CALM      30.04F
6HR MIN TEMP:  73; 6HR MAX TEMP:  86;

GULFPORT       LGT RAIN  85  75  72 SW5       30.01F
6HR MIN TEMP:  75; 6HR MAX TEMP:  89; 6HR PCP: TRACE;

BILOXI         CLOUDY    87  75  65 S3        30.01F HX  96
6HR MIN TEMP:  77; 6HR MAX TEMP:  89;

PASCAGOULA     HVY RAIN  80  74  81 NW3       30.03S
6HR MIN TEMP:  72; 6HR MAX TEMP:  89; 6HR PCP:  0.10;

STENNIS ARPT*  MOSUNNY   86  73  66 SE7       30.01F

$$

COASTAL OBSERVATIONS
LAKE AND NEARSHORE STATIONS

STATION/POSITION TIME  TEMP    WIND        PRES    WAVE
                       AIR SEA DIR/SP/G            HT/PER
                 (UTC) (F)     (DEG/KT/KT) (MB)    (FT/S)
PASCAGOULA       1742   86     360/  2/  3 1016.4
WAVELAND YACHT   1742   83 84  170/  6/  7 1016.8
GRAND ISLE       1742   85 87  220/  6/  8 1017.0
SOUTHWEST PASS   1742   84     180/  3/  4   N/A
SHELL BEACH      1742   83 86   30/  5/  5 1016.6

OFFSHORE STATIONS

STATION/POSITION TIME  TEMP    WIND        PRES    WAVE
                       AIR SEA DIR/SP/G            HT/PER
                 (UTC) (F)     (DEG/KT/KT) (MB)    (FT/S)
64 S DAUPHIN ISL 1750   83     290/  2/  4 1017.1    1

$$





USA.gov is the U.S. government's official web portal to all federal, state and local government web resources and services.